Regional Weather Roundup
Issued by NWS

Home | Current Version | Previous Version | Graphics & Text | Print | Product List | Glossary On
Versions: 1 2 3 4 5 6 7 8 9 10 11 12 13 14 15 16 17 18 19 20 21 22 23 24 25 26 27 28 29 30 31 32 33 34 35 36 37 38 39 40 41 42 43 44 45 46 47 48 49 50
000
ASUS43 KDTX 200310
RWRMI
MICHIGAN HOURLY REGIONAL WEATHER ROUNDUP
NATIONAL WEATHER SERVICE DETROIT/PONTIAC MI
ISSUED BY NATIONAL WEATHER SERVICE GRAND RAPIDS MI
1000 PM EST THU JAN 19 2017

NOTE: "FAIR" INDICATES FEW OR NO CLOUDS BELOW 12,000 FEET WITH NO
SIGNIFICANT WEATHER AND/OR OBSTRUCTION TO VISIBILITY.

MIZ047>049-052>055-059>063-066>070-074>076-081>083-200400-
SOUTHEAST LOWER MICHIGAN

CITY           SKY/WX    TMP DP  RH WIND       PRES   REMARKS
ADRIAN         CLOUDY    34  33  96 E5        29.90F WCI  30
ALMA           CLOUDY    32  32  99 E5        29.89F FOG     WCI  27
ANN ARBOR      CLOUDY    33  33 100 NE5       29.90F FOG     WCI  29
BAD AXE        CLOUDY    32  31  99 S8        29.93S FOG     WCI  24
DETROIT CITY   CLOUDY    33  33 100 E6        29.94F FOG     WCI  28
DETROIT        CLOUDY    36  34  92 E6        29.93F FOG     WCI  31
FLINT          PTCLDY    33  30  88 SE5       29.91F WCI  29
GROSSE ILE     CLOUDY    33  32  96 E6        29.92F FOG     WCI  28
HILLSDALE      CLOUDY    34  32  93 SE3       29.87S FOG
HOWELL         CLOUDY    33  32  95 SE8       29.89F FOG     WCI  26

CITY           SKY/WX    TMP DP  RH WIND       PRES   REMARKS
JACKSON        CLOUDY    35  33  92 SE6       29.87F FOG     WCI  30
LANSING        CLOUDY    35  30  82 SE7       29.89S WCI  29
MASON          CLOUDY    34  33  96 E6        29.88F FOG     WCI  29
MONROE         CLOUDY    34  34 100 E5        29.90F FOG     WCI  30
MT. CLEMENS    FOG       33  32  99 SE6       29.93F VSB 1   WCI  27
PONTIAC        FOG       32  30  92 E7        29.90F VSB 3/4 WCI  26
PORT HOPE        N/A     32  31  96 SE7       29.91F WCI  26
PORT HURON     CLOUDY    32  32 100 SE5       29.95F FOG     WCI  27
TRI CITIES     CLOUDY    32  32 100 E7        29.90F FOG     WCI  26
YPSILANTI      CLOUDY    36  34  92 E7        29.91F FOG     WCI  30
$$
MIZ043>046-050>051-056>058-064>065-071>073-077>080-200400-
SOUTHWEST LOWER MICHIGAN

CITY           SKY/WX    TMP DP  RH WIND       PRES   REMARKS
BATTLE CREEK   MOCLDY    36  33  89 SE8       29.88S WCI  30
BENTON HARBOR  CLOUDY    39  34  82 E12       29.82F WCI  32
BIG RAPIDS     CLOUDY    33  32  96 CALM      29.85F FOG
COLDWATER      CLOUDY    36  36 100 SE6       29.86F FOG     WCI  31
HOLLAND        MOCLDY    38  34  85 E5        29.85S WCI  34
GRAND RAPIDS   CLOUDY    36  32  85 E7        29.86S WCI  30
KALAMAZOO      CLOUDY    37  32  82 SE7       29.86F HAZE    WCI  32
MARSHALL       CLOUDY    34  33  97 CALM      29.88R FOG
MOUNT PLEASANT PTCLDY    32  31  99 CALM      29.87F FOG
MUSKEGON       CLOUDY    37  34  89 SE7       29.86R WCI  32
STURGIS        CLOUDY    36  35  95 E7        29.84F FOG     WCI  30
$$
MIZ016>042-200400-
NORTHERN LOWER MICHIGAN

CITY           SKY/WX    TMP DP  RH WIND       PRES   REMARKS
ALPENA         CLOUDY    34  32  92 S5        29.92S FOG     WCI  30
BEAVER ISLAND  CLOUDY    35  34  97 S5        29.88S FOG     WCI  31
BELLAIRE       CLOUDY    31  30  98 CALM      29.90S FOG
CADILLAC       CLOUDY    32  31  97 CALM      29.84F FOG
CHARLEVOIX     CLOUDY    32  32 100 CALM      29.91F FOG
GAYLORD        FOG       34  30  85 S6        29.87S VSB 1/2 WCI  29
HOUGHTON LAKE  FOG       33  32  96 E5        29.88F VSB 3/4 WCI  29
MANISTEE       CLOUDY    32  31  96 CALM      29.85F FOG
OSCODA         CLOUDY    34  33  94 S3        29.92F FOG
PELLSTON       FOG       34  31  88 CALM      29.90S VSB 1
TRAVERSE CITY  CLOUDY    33  31  92 CALM      29.88S FOG
LUDINGTON        N/A     31  31 100 E3        29.84F FOG
$$
MIZ007>008-015-200400-
EASTERN UPPER MICHIGAN

CITY           SKY/WX    TMP DP  RH WIND       PRES   REMARKS
KINROSS        LGT RAIN  32  32 100 SE5       29.90S VSB 1   WCI  27
MACKINAC ISLAN FOG       33  33 100 CALM      29.89F VSB 1/2
NEWBERRY       FOG       33  33  96 S7        29.85F VSB 1/4 WCI  27
S. S. MARIE    FOG       34  32  92 SE6       29.89F VSB 1   WCI  29
$$
MIZ004>006-011>014-085-200400-
CENTRAL UPPER MICHIGAN

CITY           SKY/WX    TMP DP  RH WIND       PRES   REMARKS
MANISTIQUE     FOG       32  32  99 S3        29.85F VSB 1/4
ESCANABA       FOG       30  30 100 S3        29.85F VSB 1/4
SAWYER-GWINN   FOG       30  30 100 SW9       29.82S VSB 1/2 WCI  22
$$
MIZ001>003-009>011-084-200400-
WESTERN UPPER MICHIGAN

CITY           SKY/WX    TMP DP  RH WIND       PRES   REMARKS
IRON MOUNTAIN  FOG       31  28  89 CALM      29.79F VSB 1/2
HOUGHTON       FOG       27  24  89 S3        29.76F VSB 1/2
COPPER HARBOR    N/A     34  31  88 SW13G20   29.75F WCI  25
IRONWOOD       PTCLDY    39  31  72 S6        29.77F WCI  35
$$

ABBREVIATIONS USED IN REMARKS
   TC - TEMPERATURE IN CELSIUS
  WCI - WIND CHILL INDEX
   HX - HEAT INDEX
  VSB - VISIBILITY





USA.gov is the U.S. government's official web portal to all federal, state and local government web resources and services.